Zurück zum Katalog

FENGYUN 1C DEB

AktivSSO
NORAD 41825·DEBRIS·🇨🇳 China

Gestartet May 10, 1999 von Taiyuan Satellite Launch Center

Loading…

Nächste Überflüge (nächste 24 Stunden)

TLE

AktuellSource: Space-Track

Epoche: Sep 13, 2026, 10:05 UTC

1 41825U 99025EYC 26256.42039997  .00001988  00000-0  82561-3 0  9990
2 41825  98.7258 329.5364 0055560 142.8582 217.6463 14.26736772512635

Verfolge FENGYUN 1C DEB in Echtzeit mit AllMySat

Download on the App Store